sat.trackr.live / text

‹ back to catalog

STARLINK-35142

NORAD 65434 · 2025-194A

PAYLOAD ACTIVE UNKNOWN

§ Identity

Operator
Country
US
Launch date
2025-09-03
Launch site
AFWTR
Launch vehicle
Mass (kg)
RCS (m²)

Purposes: comms

External: N2YO · Heavens-Above · Gunter

§ Orbital elements

Epoch: 2026-05-25T02:46:25.879584Z

Period
95.64 min
Inclination
97.4499°
Eccentricity
0.0002524
Mean motion
15.05646286 rev/d
Perigee alt
547.8 km
Apogee alt
551.3 km
Semi-major
6,927.7 km
B*
8.1137e-4
RAAN
359.2669°
Arg perigee
84.9342°
Mean anomaly
275.2173°
Rev number
4,114

§ Raw data

STARLINK-351421 65434U 25194A   26145.11557731  .00011667  00000+0  81137-3 0  99942 65434  97.4499 359.2669 0002524  84.9342 275.2173 15.05646286 41149

JSON: /api/v1/satellites/65434 · /tle

For live sub-satellite position, see the globe view (requires WebGL).

§ Visibility from observer

Set your observer location to see the next 7 days of passes ≥ 10°. The values pass through the URL so the page stays shareable.

No JS? Fill the form by hand. The geolocation button needs JavaScript.